EW6791 Weather Reports


time (UTC)temp
F
wind
direction
speed
knots
gust
knots
rain 1hr
in
rain 24hr
in
rain mn
in
humidity
%
barometer
mb
20260507193026 45 20 2.6 4.3 0.00 0.00 0.00 46 1010.4
20260507191527 46 14 0.0 3.5 0.00 0.00 0.00 45 1010.6
20260507190024 46 25 1.7 6.1 0.00 0.00 0.00 43 1010.7
20260507184521 45 18 2.6 7.0 0.00 0.00 0.00 43 1010.7
20260507183021 46 15 2.6 5.2 0.00 0.00 0.00 41 1010.7
20260507181520 48 346 0.0 1.7 0.00 0.00 0.00 40 1010.8
20260507180018 48 349 0.0 2.6 0.00 0.00 0.00 38 1010.9
20260507174537 47 331 0.9 2.6 0.00 0.00 0.00 40 1010.9
20260507173017 48 354 0.0 0.9 0.00 0.00 0.00 40 1011.1
20260507171511 47 13 0.0 1.7 0.00 0.00 0.00 41 1011.3
20260507170011 47 345 0.0 1.7 0.00 0.00 0.00 43 1011.5
20260507164509 47 353 0.0 2.6 0.00 0.00 0.00 43 1011.7
20260507163007 47 330 0.0 1.7 0.00 0.00 0.00 46 1011.8
20260507161505 45 6 0.0 3.5 0.00 0.00 0.00 48 1012.0
20260507160008 45 330 0.0 1.7 0.00 0.00 0.00 48 1012.1
20260507154505 45 14 0.9 2.6 0.00 0.00 0.00 46 1012.1
20260507153003 44 356 0.0 2.6 0.00 0.00 0.00 45 1012.1
20260507151502 44 22 0.0 3.5 0.00 0.00 0.00 46 1012.1
20260507150002 44 15 0.0 2.6 0.00 0.00 0.00 48 1012.1
20260507144501 44 19 0.9 4.3 0.00 0.00 0.00 49 1012.0
20260507143119 45 13 0.9 4.3 0.00 0.00 0.00 50 1011.9
20260507141628 45 318 0.0 1.7 0.00 0.00 0.00 44 1011.8
20260507140112 45 321 0.0 2.6 0.00 0.00 0.00 42 1011.9
20260507134607 45 328 0.0 0.9 0.00 0.00 0.00 43 1012.0
20260507133103 45 347 0.0 0.9 0.00 0.00 0.00 43 1012.0
20260507131617 44 10 0.0 0.0 0.00 0.00 0.00 42 1012.0
20260507130052 44 30 0.0 0.0 0.00 0.00 0.00 43 1011.9
20260507124555 43 88 0.0 0.0 0.00 0.00 0.00 47 1011.9
20260507123050 41 99 0.0 0.9 0.00 0.00 0.00 49 1012.0
20260507121543 39 82 0.0 0.0 0.00 0.00 0.00 51 1012.0
20260507120044 38 82 0.0 0.0 0.00 0.00 0.00 53 1012.0
20260507114542 38 82 0.0 0.0 0.00 0.00 0.00 55 1011.9
20260507113104 37 82 0.0 0.9 0.00 0.00 0.00 56 1011.8
20260507111541 37 65 0.0 0.0 0.00 0.00 0.00 57 1011.6
20260507110041 36 65 0.0 0.0 0.00 0.00 0.00 57 1011.4
20260507104544 36 65 0.0 0.0 0.00 0.00 0.00 57 1011.4
20260507103038 36 65 0.0 0.0 0.00 0.00 0.00 56 1011.5
20260507101537 36 65 0.0 0.0 0.00 0.00 0.00 56 1011.5
20260507100044 36 65 0.0 0.0 0.00 0.00 0.00 56 1011.5
20260507094539 35 65 0.0 0.0 0.00 0.00 0.00 57 1011.5
20260507093035 35 65 0.0 0.0 0.00 0.00 0.00 57 1011.7
20260507091537 35 65 0.0 0.0 0.00 0.00 0.00 55 1011.7
20260507090032 35 65 0.0 0.0 0.00 0.00 0.00 56 1011.7
20260507084546 35 65 0.0 0.0 0.00 0.00 0.00 55 1011.7
20260507083030 35 51 0.0 0.0 0.00 0.00 0.00 51 1011.8
20260507081529 35 51 0.0 0.0 0.00 0.00 0.00 51 1011.8
20260507080029 35 51 0.0 0.0 0.00 0.00 0.00 53 1011.8
20260507074528 36 51 0.0 0.0 0.00 0.00 0.00 53 1011.6
20260507073027 36 51 0.0 0.0 0.00 0.00 0.00 52 1011.6
20260507071527 36 51 0.0 0.0 0.00 0.00 0.00 51 1011.7
20260507070026 35 51 0.0 0.0 0.00 0.00 0.00 51 1011.7
20260507064524 35 51 0.0 0.0 0.00 0.00 0.00 52 1011.8
20260507063022 35 51 0.0 0.0 0.00 0.00 0.00 51 1011.9
20260507061521 35 51 0.0 0.0 0.00 0.00 0.00 52 1012.1
20260507060032 36 51 0.0 0.0 0.00 0.00 0.00 51 1012.1
20260507054515 36 51 0.0 0.0 0.00 0.00 0.00 50 1012.2
20260507053013 37 51 0.0 0.0 0.00 0.00 0.00 48 1012.3
20260507051510 38 51 0.0 0.0 0.00 0.00 0.00 47 1012.4
20260507050024 39 57 0.0 2.6 0.00 0.00 0.00 46 1012.5
20260507044508 39 45 1.7 4.3 0.00 0.00 0.00 47 1012.4
20260507043005 39 40 0.0 6.1 0.00 0.00 0.00 46 1012.2
20260507041501 39 33 2.6 4.3 0.00 0.00 0.00 48 1012.4
20260507040109 39 41 0.0 2.6 0.00 0.00 0.00 46 1012.3
20260507034604 39 71 0.0 0.9 0.00 0.00 0.00 45 1012.2
20260507033103 40 39 0.0 0.9 0.00 0.00 0.00 45 1012.3
20260507031556 40 58 0.0 4.3 0.00 0.00 0.00 45 1012.7
20260507030056 40 49 0.0 3.5 0.00 0.00 0.00 44 1012.7
20260507024556 40 39 1.7 5.2 0.00 0.00 0.00 45 1012.6
20260507023055 40 51 0.9 5.2 0.00 0.00 0.00 44 1012.7
20260507021602 40 35 3.5 8.7 0.00 0.00 0.00 44 1012.6
20260507020054 40 55 4.3 8.7 0.00 0.00 0.00 44 1012.7
20260507014556 40 52 3.5 9.6 0.00 0.00 0.00 44 1012.7
20260507013053 40 63 6.1 10.4 0.00 0.00 0.00 43 1012.6
20260507011556 41 47 6.1 10.4 0.00 0.00 0.00 41 1012.5
20260507010049 41 46 4.3 8.7 0.00 0.00 0.00 45 1012.3
20260507004550 41 62 5.2 13.0 0.00 0.00 0.00 42 1012.1
20260507003048 41 51 0.9 12.2 0.00 0.00 0.00 44 1011.9
20260507001547 41 46 6.1 10.4 0.00 0.00 0.00 44 1011.8
20260507000047 41 39 3.5 11.3 0.00 0.00 0.00 43 1011.5
20260506234603 41 45 6.1 12.2 0.00 0.00 0.00 43 1011.4
20260506233045 42 60 0.9 6.1 0.00 0.00 0.00 43 1011.4
20260506231544 43 46 3.5 9.6 0.00 0.00 0.00 44 1011.3
20260506230043 43 38 6.1 14.8 0.00 0.00 0.00 44 1011.4
20260506224546 44 55 1.7 9.6 0.00 0.00 0.00 44 1011.3
20260506223048 45 37 5.2 8.7 0.00 0.00 0.00 42 1011.2
20260506221542 44 58 8.7 13.0 0.00 0.00 0.00 44 1011.2
20260506220042 45 40 1.7 10.4 0.00 0.00 0.00 42 1011.1
20260506214543 45 44 5.2 10.4 0.00 0.00 0.00 42 1011.0
20260506213039 45 44 0.9 11.3 0.00 0.00 0.00 43 1011.0
20260506211537 44 56 6.1 11.3 0.00 0.00 0.00 44 1010.9
20260506210039 43 57 8.7 12.2 0.00 0.00 0.00 43 1010.9
20260506204548 43 61 4.3 11.3 0.00 0.00 0.00 44 1010.9
20260506203036 43 37 8.7 13.9 0.00 0.00 0.00 44 1011.0
20260506201538 43 44 6.1 11.3 0.00 0.00 0.00 42 1011.1
20260506200035 42 49 7.8 11.3 0.00 0.00 0.00 43 1011.2
20260506194539 43 45 3.5 10.4 0.00 0.00 0.00 42 1011.1